Weather History for China Lake, CA

Change the Weather History Date:

Saturday, August 18, 2012

  Actual Average Record
Temperature  
Mean Temperature 90 °F -  
Max Temperature 104 °F 99 °F 109 °F (2002)
Min Temperature 79 °F 70 °F 61 °F (1998)
Cooling Degree Days 26    
Growing Degree Days 40 (Base 50)    
Moisture  
Dew Point 53 °F    
Average Humidity 28    
Maximum Humidity 58    
Minimum Humidity 18    
Precipitation  
Precipitation 0.00 in - - ()
Sea Level Pressure  
Sea Level Pressure 29.81 in    
Wind  
Wind Speed 6 mph (SSE)    
Max Wind Speed 20 mph    
Max Gust Speed 26 mph    
Visibility 10 miles    
Events Rain    
Averages and records for this station are not official NWS values.
T = Trace of Precipitation, MM = Missing Value Source: NWS Daily Summary

Daily Weather History Graph

Daily Weather History Graph

Search for Another Location

Airport:

Trip Planner

Search our weather history database for the weather conditions in past years. The results will help you decide how hot, cold, wet, or windy it might be!

Date:

Astronomy

Aug. 18, 2012 Rise Set
Actual Time 6:12 AM PDT 7:35 PM PDT
Civil Twilight 5:45 AM PDT 8:02 PM PDT
Nautical Twilight 5:13 AM PDT 8:34 PM PDT
Astronomical Twilight 4:39 AM PDT 9:08 PM PDT
Moon 7:21 AM PDT (8/18) 8:00 PM PDT (8/18)
Length of Visible Light 14h 16m
Length of Day
13h 23m
New Moon, 2% of the Moon is Illuminated
Aug 18
New Moon
Aug 24
First Quarter
Aug 31
Full
Sep 8
Last Quarter
Sep 15
New

Hourly Weather History & Observations

Time (PDT) Temp. Heat Index Dew Point Humidity Pressure Visibility Wind Dir Wind Speed Gust Speed Precip Events Conditions
12:56 AM 89.1 °F - 46.9 °F 23% 29.83 in 10.0 mi SSE 9.2 mph - N/A   Partly Cloudy
1:56 AM 87.1 °F - 46.0 °F 24% 29.85 in 10.0 mi SE 4.6 mph - N/A   Scattered Clouds
2:56 AM 79.0 °F - 63.0 °F 58% 29.85 in 10.0 mi SSE 8.1 mph - 0.00 in Rain Light Rain
3:56 AM 80.1 °F 81.7 °F 64.0 °F 58% 29.86 in 10.0 mi Calm Calm - 0.00 in   Scattered Clouds
4:56 AM 80.1 °F 80.6 °F 57.9 °F 47% 29.86 in 10.0 mi East 3.5 mph - N/A   Scattered Clouds
5:56 AM 80.1 °F 80.2 °F 55.9 °F 43% 29.86 in 10.0 mi Calm Calm - N/A   Clear
6:56 AM 80.1 °F 79.9 °F 53.1 °F 39% 29.88 in 10.0 mi SSW 4.6 mph - N/A   Clear
7:56 AM 84.9 °F - 50.0 °F 30% 29.88 in 10.0 mi South 5.8 mph - N/A   Clear
8:56 AM 89.1 °F - 46.9 °F 23% 29.88 in 10.0 mi South 4.6 mph - N/A   Clear
9:56 AM 91.9 °F - 48.0 °F 22% 29.88 in 10.0 mi Variable 3.5 mph - N/A   Clear
10:56 AM 95.0 °F - 48.9 °F 21% 29.87 in 10.0 mi Calm Calm - N/A   Clear
11:56 AM 97.0 °F - 52.0 °F 22% 29.85 in 10.0 mi ESE 6.9 mph - N/A   Clear
12:56 PM 100.0 °F 97.9 °F 53.1 °F 21% 29.81 in 10.0 mi East 8.1 mph - N/A   Clear
1:56 PM 100.9 °F 98.7 °F 53.1 °F 20% 29.78 in 10.0 mi SSE 6.9 mph - N/A   Clear
2:56 PM 102.0 °F 99.7 °F 53.1 °F 19% 29.76 in 10.0 mi Calm Calm - N/A   Clear
3:56 PM 102.9 °F - 51.1 °F 18% 29.73 in 10.0 mi SSE 9.2 mph 20.7 mph N/A   Clear
4:56 PM 100.9 °F - 52.0 °F 19% 29.73 in 10.0 mi SSE 6.9 mph - N/A   Partly Cloudy
5:56 PM 100.0 °F - 52.0 °F 20% 29.71 in 10.0 mi SSE 6.9 mph - N/A   Clear
6:56 PM 100.0 °F - 52.0 °F 20% 29.71 in 10.0 mi South 8.1 mph - N/A   Clear
7:56 PM 96.1 °F - 46.9 °F 19% 29.73 in 10.0 mi South 8.1 mph - N/A   Clear
8:56 PM 93.0 °F - 46.9 °F 20% 29.76 in 10.0 mi South 6.9 mph - N/A   Clear
9:56 PM 93.0 °F 90.8 °F 54.0 °F 27% 29.77 in 10.0 mi NW 19.6 mph 25.3 mph N/A   Clear
10:05 PM 91.4 °F 89.4 °F 55.4 °F 29% 29.85 in 10.0 mi NW 17.3 mph 26.5 mph N/A   Clear
10:56 PM 91.9 °F 90.0 °F 55.0 °F 29% 29.78 in 10.0 mi NNW 15.0 mph 19.6 mph N/A   Mostly Cloudy
11:56 PM 89.1 °F 87.3 °F 55.9 °F 32% 29.79 in 10.0 mi WNW 10.4 mph - N/A   Clear